Weather in Suguty

Russia / Chuvash Republic     54°59′51″N   47°38′06″E
temp.,
°C
wind,
m/s
gust,
m/s
humid.,
%
clouds,
%
prec.,
mm/h
press.,
hPa
HPBL,
m
20 january, wed
wed2000:00−21w3497100 0.0 101566
03:00−20w369898 0.1 1015143
06:00−18w479799 0.2 1014298
09:00−17w479699 0.6 1015297
12:00−15w4694100 0.3 1016333
15:00−15w4794100 0.5 1016329
18:00−16wsw489496 0.1 1017242
21:00−17wsw499693 0.1 1018219
21 january, thu
thu2100:00−17wsw499590 0.1 1018197
03:00−15w599591 0.1 1018257
06:00−16w4109493 0.0 1018233
09:00−14w5109296 0.1 1019327
12:00−12w51092100 0.0 1019347
15:00−11w61191100 0.1 1018396
18:00−12wsw51191100 0.0 1017286
21:00−12wsw4994100 0.1 1017273
22 january, fri
fri2200:00−14wsw489497 0.3 1016257
03:00−15w359597 0.3 1016106
06:00−18w239786 0.0 101720
09:00−17w229593 0.0 101922
12:00−14w129396 0.0 102093
15:00−16ne009488 0.0 102120
18:00−16se2294100 0.0 102222
21:00−16se4694100 0.0 1023136
23 january, sat
sat2300:00−14se5994100 0.0 1023268
03:00−13sse61095100 0.9 1022295
06:00−11sse61094100 0.6 1021317
09:00−10sse61194100 0.9 1020286
12:00−6s71195100 0.6 1019326
15:000s4999100 1.1 1018249
18:00+1sw61395100 0.1 1018528
21:00+1sw41195100 0.1 1018453
24 january, sun
sun2400:00+1sw41296100 0.0 1018519
03:00+1ssw51197100 0.0 1018389
06:00+1ssw49100100 0.1 1018283
09:00+2sw511100100 0.7 1019313
12:00+1sw61195100 0.3 1020358
15:00+1sw51095100 0.4 1020356
18:00+1sw61196100 0.6 1021399
21:00+1ssw61294100 1.4 1022376